Stanley, ID

4:31 AM MDT on June 29, 2017 (GMT -0600)
Stanley

Weather History for KSNT - August, 2013

Change the Weather History Date:

Sunday, August 18, 2013

  Actual Average Record
Temperature  
Mean Temperature 60 °F 56 °F  
Max Temperature 86 °F 77 °F 90 °F (2001)
Min Temperature 34 °F 34 °F 18 °F (1920)
Degree Days  
Heating Degree Days 5 9  
Month to date heating degree days 119 133  
Since 1 June heating degree days 631 828  
Since 1 July heating degree days 262 374  
Cooling Degree Days 0 0  
Month to date cooling degree days 0 0  
Year to date cooling degree days 19 3  
Since 1 June cooling degree days 19 3  
Growing Degree Days 10 (Base 50)    
Moisture  
Dew Point 29 °F    
Average Humidity 40    
Maximum Humidity 70    
Minimum Humidity 10    
Precipitation  
Precipitation 0.00 in 0.02 in 0.71 in (1926)
Month to date precipitation 0.04 0.35  
Year to date precipitation 6.27 10.96  
Sea Level Pressure  
Sea Level Pressure 29.99 in    
Wind  
Wind Speed 4 mph (West)    
Max Wind Speed 16 mph    
Max Gust Speed 23 mph    
T = Trace of Precipitation, MM = Missing Value Source: NWS Daily Summary

Daily Weather History Graph

Daily Weather History Graph

Search for Another Location

Airport or City:

Trip Planner

Search our weather history database for the weather conditions in past years. The results will help you decide how hot, cold, wet, or windy it might be!

Date:

Astronomy

Aug. 18, 2013 Rise Set
Actual Time 6:46 AM MDT 8:39 PM MDT
Civil Twilight 6:15 AM MDT 9:10 PM MDT
Nautical Twilight 5:37 AM MDT 9:47 PM MDT
Astronomical Twilight 4:56 AM MDT 10:29 PM MDT
Moon 6:50 PM MDT (8/18) 3:58 AM MDT (8/18)
Length of Visible Light 14h 54m
Length of Day
13h 52m
Waxing Gibbous, 92% of the Moon is Illuminated
Aug 18
Waxing Gibbous
Aug 20
Full
Aug 28
Last Quarter
Sep 5
New
Sep 12
First Quarter

Hourly Weather History & Observations

Time (MDT) Temp. Windchill Dew Point Humidity Pressure Visibility Wind Dir Wind Speed Gust Speed Precip Events Conditions
12:51 AM 50.0 °F - 28.0 °F 43% 29.95 in - SSE 3.5 mph - N/A   Unknown
1:51 AM 48.0 °F - 27.0 °F 44% 29.96 in - ESE 5.8 mph - N/A   Unknown
2:51 AM 42.1 °F - 28.0 °F 58% 29.98 in - Calm Calm - N/A   Unknown
3:51 AM 41.0 °F - 28.0 °F 60% 29.98 in - Calm Calm - N/A   Unknown
4:51 AM 37.9 °F - 28.0 °F 68% 30.01 in - Calm Calm - N/A   Unknown
5:51 AM 37.0 °F 34.5 °F 27.0 °F 67% 30.03 in - SSE 3.5 mph - N/A   Unknown
6:51 AM 35.1 °F - 26.1 °F 70% 30.07 in - Calm Calm - N/A   Unknown
7:51 AM 39.9 °F 37.8 °F 28.9 °F 65% 30.06 in - East 3.5 mph - N/A   Unknown
8:51 AM 48.0 °F - 30.0 °F 50% 30.07 in - Calm Calm - N/A   Unknown
9:51 AM 55.9 °F - 30.9 °F 39% 30.07 in - Calm Calm - N/A   Unknown
10:51 AM 66.9 °F - 33.1 °F 28% 30.03 in - Variable 3.5 mph - N/A   Unknown
11:51 AM 75.0 °F - 35.1 °F 23% 29.99 in - North 5.8 mph - N/A   Unknown
12:51 PM 82.0 °F - 32.0 °F 16% 29.96 in - Variable 4.6 mph - N/A   Unknown
1:51 PM 84.0 °F - 32.0 °F 15% 29.96 in - WNW 8.1 mph 20.7 mph N/A   Unknown
2:51 PM 84.9 °F - 27.0 °F 12% 29.96 in - NW 13.8 mph 23.0 mph N/A   Unknown
3:51 PM 84.0 °F - 23.0 °F 11% 29.96 in - NW 8.1 mph 20.7 mph N/A   Unknown
4:51 PM 84.0 °F - 21.9 °F 10% 29.96 in - Variable 5.8 mph - N/A   Unknown
5:51 PM 82.9 °F - 24.1 °F 12% 29.96 in - NW 8.1 mph 18.4 mph N/A   Unknown
6:51 PM 82.0 °F - 27.0 °F 13% 29.96 in - WNW 9.2 mph 18.4 mph N/A   Unknown
7:51 PM 79.0 °F - 28.9 °F 16% 29.94 in - Variable 3.5 mph - N/A   Unknown
8:51 PM 68.0 °F - 30.0 °F 24% 29.98 in - Calm Calm - N/A   Unknown
9:51 PM 60.1 °F - 30.9 °F 33% 30.00 in - SSW 4.6 mph - N/A   Unknown
10:51 PM 55.9 °F - 30.9 °F 39% 29.99 in - Calm Calm - N/A   Unknown
11:51 PM 50.0 °F - 30.0 °F 46% 30.00 in - SSE 3.5 mph - N/A   Unknown